◎新彗星  C/2008 Rxの軌道と予報位置



 2002年以来,久しぶりに新彗星が発見されました.発見は,板垣公一氏と

金田宏氏によるものです.サーベイ開始は今年春以後で,21-cm f/3.0反射を

使用して,2008年9月10日夕刻にみずがめ座とわし座の境界近くを撮影した

2枚の捜索画像からの発見されたものです.彗星は,中央集光が強く,拡散

状,約25"のコマと東南東に1'ほどの尾が見られるとのことです.この彗星は,

守山の井狩康一氏,美星スペースガードセンター,上尾の門田健一氏らによっ

て,即座に確認されました.井狩氏によると,彗星のコマは0'.8,位置角120゚

の方向に1'の尾,門田氏によると,コマは1',位置角124゚の方向に1'1の尾が

あるとのことです.



 この彗星は,ドイツのメイヤーによって,NK 1211に予報されているD/Giacobini

彗星(1896 R2)と同定できるということが指摘されました.予報軌道からの

近日点通過のずれは,わずかに儺= +0.32日,予報からの発見位置のずれは,

赤経方向に-0゚.35,赤緯方向に-0゚.02のずれでした.なお,1896年の位置は,

ベリアエフの軌道から作成したものです.



    P/1896 R2 = 2008 Rx (Giacobini-Itagaki-Kaneda)  [Temporary named]

Epoch 2008 Sept. 11.0 TT = JDT 2454720.5  

T 2008 Sept. 10.21326 TT                                Nakano

q   1.5276947            (2000.0)            P               Q

n   0.14798187     Peri.  154.31362     +0.89843431     +0.43910457

a   3.5399492      Node   179.62631     -0.43448134     +0.88952929

e   0.5684416      Incl.   15.31694     -0.06357480     +0.12619361

P   6.66

From 100 observations 1896-2008, mean residual 0".82.

Residuals in seconds of arc 

1896/                     961208 500  1.0+  0.6+ Y  080910 D89  0.7-  0.0   

961104 500  1.5-  0.3- Y  961209 500  1.2+  0.1+ Y  080910 D89  0.2+  0.2+  

961105 500  1.9-  0.7- Y  961210 500  1.1+  0.6+ Y  080910 D89  0.2+  0.2-  

961106 500  1.7-  0.6- Y  961211 500  0.9+  0.4+ Y  080910 D89  0.4-  0.4+  

961107 500  0.5-  0.0  Y  961212 500  0.8+  0.2- Y  080910 D89  0.1+  0.0   

961108 500  0.6-  0.1- Y  961213 500  1.2+  0.2+ Y  080910 D89  0.3+  0.2-  

961109 500  1.3-  0.6- Y  961214 500  0.7+  0.3- Y  080910 900  0.3-  0.3-  

961110 500  0.5-  0.3+ Y  961215 500  1.1+  0.2- Y  080910 300  0.1+  0.7-  

961111 500  0.6-  0.2- Y  961216 500  1.0+  0.3- Y  080910 300  0.4+  0.5+  

961112 500  0.9-  0.1- Y  961217 500  0.7+  0.3- Y  080910 D89  0.1+  0.2+  

961113 500  1.0-  0.3- Y  961218 500  0.4+  0.2+ Y  080910 300  0.0   0.1-  

961114 500  0.1-  0.2+ Y  961219 500  0.0   0.3+ Y  080910 900  0.4-  0.0   

961115 500  0.7-  0.3- Y  961220 500  0.1-  0.5+ Y  080910 300  0.2+  0.2-  

961116 500  0.7+  0.2+ Y  961221 500  0.0   0.1- Y  080910 300  1.1+  0.3-  

961117 500  0.2+  0.1- Y  961222 500  0.5+  0.1- Y  080910 300  0.1-  0.2-  

961118 500  0.1-  0.2- Y  961223 500  0.1+  0.2- Y  080910 300  0.6+  0.3-  

961119 500  0.2+  0.1+ Y  961224 500  0.1+  0.3- Y  080910 300  0.7+  0.1+  

961120 500  0.2+  0.1- Y  961225 500  0.8-  0.1+ Y  080910 300  0.0   0.1-  

961121 500  0.4+  0.5+ Y  961226 500  1.0-  0.1+ Y  080910 900  0.5-  0.0   

961122 500  1.2+  0.0  Y  961227 500  0.6-  0.1+ Y  080910 D89  0.4+  0.1+  

961123 500  0.1+  0.4+ Y  961228 500  1.1-  0.2+ Y  080910 900  0.1-  0.0   

961124 500  0.5+  0.1+ Y  961229 500  0.8-  0.3- Y  080910 900  0.0   0.3+  

961125 500  1.3+  0.2+ Y  961230 500  1.4-  0.1- Y  080910 D35  0.5-  0.1+  

961126 500  0.1+  0.1- Y  961231 500  1.4-  0.1+ Y  080910 D35  0.3-  0.6-  

961127 500  0.1+  0.4+ Y  1897/                     080910 D35  0.8-  0.3+  

961128 500  0.2+  0.2- Y  970101 500  0.6-  0.5- Y  080910 D35  0.2-  0.1-  

961129 500  0.8+  0.5+ Y  970102 500  0.7-  0.6- Y  080910 D35  0.5-  0.6+  

961130 500  0.8+  0.5+ Y  970103 500  1.6-  0.0  Y  080910 349  0.4+  0.2+  

961201 500  0.4+  0.1+ Y  970104 500  1.7-  0.3- Y  080910 349  0.1+  0.4+  

961202 500  1.6+  0.5+ Y  970105 500  1.2-  0.4- Y  080910 349  0.6+  0.4+  

961203 500  0.2+  0.0  Y  2008/                     080910 349  0.4+  0.0   

961204 500  0.9+  0.1- Y  080910 D89 (2.8+  0.6-)   080910 900  0.1-  0.1-  

961205 500  1.2+  0.2+ Y  080910 D89  0.5-  0.2-    080910 349  0.3+  0.0   

961206 500  1.3+  0.5+ Y  080910 D89  0.5-  0.0     080910 900  0.0   0.0   

961207 500  0.2+  0.2- Y  080910 D89  0.2-  0.2+                            



2008/        α  (2000) δ      △      r    Daily motion  Elong. Phase    m1   天文薄明終了時

 21h JST    h  m       。  ,        AU      AU      ,     。     。      。      等     h。    A 。 

Sept.10   20 39.22  -01 15.8    0.609   1.528    31.6/142   140.7   24.7   13.8   +46.6  322.6

     11   20 40.53  -01 40.6    0.612   1.528    31.8/141   140.2   24.9   13.8   +46.4  323.2

     12   20 41.88  -02 05.2    0.615   1.528    32.0/140   139.7   25.2   13.8   +46.1  323.8

     13   20 43.26  -02 29.6    0.618   1.528    32.2/139   139.2   25.5   13.8   +45.9  324.4

     14   20 44.68  -02 53.7    0.621   1.528    32.4/138   138.7   25.8   13.8   +45.7  324.9

     15   20 46.13  -03 17.7    0.625   1.529    32.5/137   138.1   26.0   13.8   +45.4  325.5

     16   20 47.62  -03 41.3    0.628   1.529    32.7/136   137.6   26.3   13.8   +45.2  326.0

     17   20 49.15  -04 04.7    0.632   1.530    32.8/135   137.0   26.6   13.9   +44.9  326.5

     18   20 50.71  -04 27.7    0.636   1.530    32.9/134   136.5   26.9   13.9   +44.6  327.0

     19   20 52.30  -04 50.4    0.640   1.531    33.0/133   135.9   27.1   13.9   +44.4  327.5

     20   20 53.92  -05 12.8    0.645   1.531    33.1/132   135.4   27.4   13.9   +44.1  327.9

     21   20 55.58  -05 34.8    0.649   1.532    33.2/131   134.8   27.7   13.9   +43.9  328.4

     22   20 57.27  -05 56.4    0.654   1.533    33.3/130   134.3   27.9   13.9   +43.6  328.8

     23   20 58.98  -06 17.6    0.658   1.534    33.3/129   133.7   28.2   14.0   +43.4  329.2

     24   21 00.73  -06 38.4    0.663   1.535    33.4/128   133.2   28.5   14.0   +43.1  329.6

     25   21 02.51  -06 58.8    0.668   1.536    33.5/127   132.6   28.7   14.0   +42.9  330.0

     26   21 04.32  -07 18.7    0.674   1.537    33.5/126   132.0   29.0   14.0   +42.6  330.4

     27   21 06.15  -07 38.2    0.679   1.538    33.6/125   131.5   29.2   14.0   +42.4  330.7

     28   21 08.01  -07 57.2    0.684   1.540    33.6/123   130.9   29.5   14.1   +42.2  331.1

     29   21 09.90  -08 15.7    0.690   1.541    33.6/122   130.4   29.7   14.1   +41.9  331.4

     30   21 11.81  -08 33.8    0.696   1.542    33.7/121   129.8   29.9   14.1   +41.7  331.8

Oct.  1   21 13.75  -08 51.3    0.702   1.544    33.7/120   129.2   30.1   14.1   +41.5  332.1



NAKANO

         **** Don't distribute anyone except personal use only ****

                (C) Copyright 2008 OAA/ComputingSection

write mail from CFAD0::NAKANO on 2008-09-11 04:22:16(JST).



戻ります。